OpenBCM V1.08-5-g2f4a (Linux)

Packet Radio Mailbox

IZ3LSV

[San Dona' di P. JN]

 Login: GUEST





  
CX2SA  > KEPS     19.07.24 01:45l 447 Lines 21437 Bytes #24 (0) @ AMSAT
BID : ORB24194.1
Read: GUEST
Subj: 2Line Orbital Elements 24194.AMSAT
Path: IZ3LSV<DB0ERF<DK0WUE<PD0LPM<PI8ZTM<OZ5BBS<CX2SA
Sent: 240719/0024Z @:CX2SA.SAL.URY.SOAM #:42082 [Salto] FBB7.00e $:ORB24194.1
From: CX2SA@CX2SA.SAL.URY.SOAM
To  : KEPS@AMSAT


QST de W1STR

AMSAT Orbital Elements for Amateur Satellites in TLE Format
>From Orbital Analysis Office
New England Sci-Tech STEM Education Center
Natick, MA July 12, 2024
To all radio amateurs


These element sets describe the orbits of various satellites
in use by the amateur radio community. For details see:
www.amsat.org/keplerian-elements-formats/

A daily update of element sets is available at:
www.amsat.org/tle/daily-bulletin.txt
or without bulletin text:
www.amsat.org/tle/dailytle.txt


AO-07
1 07530U 74089B   24192.92637009 -.00000040  00000-0  38428-4 0  9991
2 07530 101.9783 187.7970 0012532  40.4152  14.6972 12.53676800272259
UO-11
1 14781U 84021B   24193.65436191  .00002176  00000-0  24976-3 0  9997
2 14781  97.7060 162.1943 0008139   8.4824 351.6529 14.86844631173125
AO-27
1 22825U 93061C   24193.87844486  .00000188  00000-0  89531-4 0  9993
2 22825  98.7870 246.9100 0008570  14.6388 345.5041 14.30519635606418
FO-29
1 24278U 96046B   24193.51991488  .00000016  00000-0  49881-4 0  9993
2 24278  98.5801 124.9859 0350852 125.1304 238.3251 13.53192234377973
NOAA-15
1 25338U 98030A   24193.64395576  .00000295  00000-0  14014-3 0  9994
2 25338  98.5673 220.2590 0009151 250.7589 109.2601 14.26624347360921
GO-32
1 25397U 98043D   24193.47742659  .00000145  00000-0  82923-4 0  9991
2 25397  98.9228 160.5646 0002412  88.7857 271.3597 14.24067218351093
ISS
1 25544U 98067A   24193.70440880  .00012093  00000-0  22113-3 0  9997
2 25544  51.6371 193.8762 0010319  55.2719 304.9240 15.49751494462355
NO-44
1 26931U 01043C   24193.59447108  .00000206  00000-0  10903-3 0  9990
2 26931  67.0509 268.4971 0007514 276.6334  83.3913 14.31273128189440
SO-50
1 27607U 02058C   24193.27091734  .00002043  00000-0  29240-3 0  9998
2 27607  64.5546 147.5143 0025737  99.7362 260.6650 14.79119143159885
CO-55
1 27844U 03031E   24193.55474312  .00000503  00000-0  24109-3 0  9999
2 27844  98.6766 200.2440 0011016  76.1020 284.1384 14.23308531 91253
CO-57
1 27848U 03031J   24193.56884286  .00000423  00000-0  20808-3 0  9992
2 27848  98.6795 200.4889 0010942  90.4006 269.8426 14.22743546 91006
RS-22
1 27939U 03042A   24193.70710456  .00001635  00000-0  28065-3 0  9997
2 27939  98.2937 350.2988 0011599 348.6913  21.9722 14.70074726111884
NOAA-18
1 28654U 05018A   24193.70443776  .00000280  00000-0  17282-3 0  9999
2 28654  98.8740 270.4660 0013962 358.4943   1.6185 14.13250016986721
CO-58
1 28895U 05043F   24193.30451535  .00002215  00000-0  39589-3 0  9996
2 28895  98.2051 329.1708 0014347 281.7170  78.2425 14.67858692997991
CO-65
1 32785U 08021C   24193.48202950  .00004418  00000-0  38795-3 0  9997
2 32785  97.7559 158.6128 0009392 241.2751 118.7527 14.97069009879117
AAUSAT2
1 32788U 08021F   24193.49797165  .00022705  00000-0  10959-2 0  9998
2 32788  97.5949 173.8282 0008090  94.3029 265.9129 15.18652138882011
CO-66
1 32791U 08021J   24193.41562596  .00009472  00000-0  68238-3 0  9992
2 32791  97.6898 164.4585 0004428 205.7810 154.3196 15.04383647880168
RS-30
1 32953U 08025A   24193.69880407  .00000029  00000-0  13536-3 0  9990
2 32953  82.5019  74.2406 0020511  52.4798 307.8142 12.43143458732176
PRISM
1 33493U 09002B   24193.87113322  .00025200  00000-0  11468-2 0  9990
2 33493  98.2028 243.6434 0013168 159.5511 200.6252 15.20627425842808
NOAA-19
1 33591U 09005A   24193.87174514  .00000277  00000-0  17298-3 0  9997
2 33591  99.0457 249.9308 0013213 219.0782 140.9436 14.13044922795111
SRMSAT
1 37841U 11058D   24193.78980279  .00000473  00000-0  11387-3 0  9994
2 37841  19.9736   7.9772 0011856   5.3839  24.6045 14.11138446658262
RS-40
1 38735U 12041C   24193.57380695  .00000037  00000-0  19337-3 0  9992
2 38735  82.4766 154.6826 0017471 161.1710 199.0020 12.42611568542200
ZACUBE-1
1 39417U 13066B   24193.50737811  .00005822  00000-0  60100-3 0  9998
2 39417  97.7352 148.9346 0052349  80.5931 280.1199 14.89524089575202
Delfi-N3xt
1 39428U 13066N   24193.36372745  .00008926  00000-0  11260-2 0  9995
2 39428  97.8365 111.0625 0100716  11.4967 348.8511 14.78601716569848
GOMX-1
1 39430U 13066Q   24193.58215197  .00002213  00000-0  37175-3 0  9996
2 39430  97.7293  66.4891 0139771 174.6724 185.6006 14.64313579566614
LO-74
1 39440U 13066AA  24193.59347724  .00003830  00000-0  45176-3 0  9996
2 39440  97.8133 136.7417 0069088 192.9576 166.9866 14.83610687571955
AO-73
1 39444U 13066AE  24193.41902033  .00007615  00000-0  72990-3 0  9990
2 39444  97.7200 152.0344 0049397  61.8996 298.7203 14.92486669573721
SPROUT
1 39770U 14029E   24193.68289895  .00250429  00000-0  32023-2 0  9990
2 39770  98.0068 349.0999 0004530 251.5921 108.4841 15.58364506551458
DTUSAT-2
1 40030U 14033W   24193.58808407  .00006533  00000-0  54671-3 0  9990
2 40030  98.0077 146.6823 0010593  73.8834 286.3553 14.98777543546351
EO-80
1 40032U 14033Y   24193.48946624  .00007789  00000-0  64947-3 0  9996
2 40032  98.0079 146.5861 0012470  79.3247 280.9378 14.98830638546834
XW-2C
1 40906U 15049H   24193.62940113  .00029041  00000-0  63379-3 0  9990
2 40906  97.4769 211.1013 0007876 194.0398 166.0632 15.44147348488245
XW-2D
1 40907U 15049J   24193.65187358  .00050300  00000-0  81543-3 0  9993
2 40907  97.4710 213.9189 0007685 178.5966 181.5309 15.52588767488495
LILACSAT-2
1 40908U 15049K   24193.77388571  .00009415  00000-0  35881-3 0  9992
2 40908  97.5234 202.6676 0010158 260.6386  99.3704 15.26880147487247
XW-2B
1 40911U 15049N   24193.62655264  .00046409  00000-0  77662-3 0  9993
2 40911  97.4684 213.9488 0007480 181.1827 178.9409 15.51719768488353
IO-86
1 40931U 15052B   24180.14795698  .00001574  00000-0  12542-3 0  9998
2 40931   5.9997 274.4192 0013395 238.9714 120.9097 14.77898591473081
ChubuSat-2
1 41338U 16012B   24193.49955095  .00005057  00000-0  30921-3 0  9999
2 41338  30.9999 234.2964 0011323 121.6884 238.4859 15.08617658461276
ChubuSat-3
1 41339U 16012C   24193.51849681  .00004345  00000-0  26938-3 0  9998
2 41339  31.0064 232.8107 0011348 126.1537 234.0152 15.08007199461256
Horyu-4
1 41340U 16012D   24193.28989449  .00011285  00000-0  54938-3 0  9993
2 41340  31.0013 178.4397 0010397 218.6724 141.3172 15.17062263461813
Lapan A3
1 41603U 16040E   24193.64509248  .00003791  00000-0  15220-3 0  9995
2 41603  97.1414 206.2595 0012499  24.0684 336.1136 15.25473836446955
Pratham
1 41783U 16059A   24193.58343213  .00001028  00000-0  19930-3 0  9998
2 41783  97.8355 211.7747 0031153 304.7578  55.0694 14.64973681416119
CAS-2T
1 41847U 16066G   24193.25868367  .00002399  00000-0  35467-3 0  9998
2 41847  98.4593 264.3792 0354786 104.8816 259.1943 14.41406713402963
CAS-4B
1 42759U 17034B   24193.67948722  .00016598  00000-0  58260-3 0  9999
2 42759  43.0172  88.0427 0010959 157.4031 202.7306 15.29110402391154
CAS-4A
1 42761U 17034D   24193.67901015  .00017310  00000-0  60513-3 0  9993
2 42761  43.0214  86.3788 0010220 171.1550 188.9484 15.29225363391161
Aalto 1
1 42775U 17036L   24193.61185112  .00134656  00000-0  92529-3 0  9991
2 42775  97.0981 223.6573 0007142 126.0043 234.1885 15.74244189392942
D-SAT
1 42794U 17036AF  24193.46857257  .00008527  00000-0  58829-3 0  9993
2 42794  97.4818 174.4769 0110672  67.1939 294.0931 15.01102427384393
TechnoSat
1 42829U 17042E   24193.78474420  .00004326  00000-0  38168-3 0  9998
2 42829  97.3855  13.4780 0012091 359.8396   0.2821 14.96831994380854
AO-91
1 43017U 17073E   24193.57400374  .00006125  00000-0  37929-3 0  9999
2 43017  97.5740  68.2087 0208369 211.8087 147.0411 14.93824304359301
TianYi 2
1 43155U 18008A   24193.67721011  .00163362  00000-0  14124-2 0  9994
2 43155  97.2298 248.3226 0002070 289.7944  70.3094 15.68688263358738
Zhou Enlai
1 43156U 18008B   24193.09334842  .01226122  84197-3  19946-2 0  9997
2 43156  97.2261 250.6701 0010719 251.1284 108.8835 16.03450643358742
TianYi 6
1 43158U 18008D   24193.87158702  .00067183  00000-0  11597-2 0  9995
2 43158  97.2534 242.5976 0003633  14.2839 345.8515 15.50776350358297
S-Net D
1 43186U 18014G   24193.72416784  .00005164  00000-0  36911-3 0  9993
2 43186  97.5889  95.1363 0008304 286.4267  73.6047 15.04880823352193
S-Net B
1 43187U 18014H   24193.72654400  .00005168  00000-0  36939-3 0  9997
2 43187  97.5897  95.0901 0009158 280.2658  79.7536 15.04873489352194
S-Net A
1 43188U 18014J   24193.32634065  .00005019  00000-0  35888-3 0  9996
2 43188  97.5904  94.8115 0009033 282.8804  77.1413 15.04877743352138
S-Net C
1 43189U 18014K   24193.72863391  .00005170  00000-0  36937-3 0  9991
2 43189  97.5919  95.1595 0010838 272.0049  87.9936 15.04875338350740
Ten-Koh
1 43677U 18084G   24193.41875236  .00002986  00000-0  26987-3 0  9993
2 43677  98.0654 347.6668 0013124 298.5694  61.4205 14.96218566310342
PO-101
1 43678U 18084H   24193.69830583  .00001739  00000-0  16288-3 0  9998
2 43678  98.0742 352.4082 0008192 314.7767  45.2785 14.95416122310582
QO-100
1 43700U 18090A   24193.49067751  .00000151  00000-0  00000+0 0  9996
2 43700   0.0167  31.1816 0002306 121.7666 339.4035  1.00273044 20842
MinXSS-2
1 43758U 18099A   24193.16619332  .00009821  00000-0  61282-3 0  9996
2 43758  97.5525 255.1647 0015576 230.7776 129.2071 15.09609405306402
AO-95
1 43770U 18099N   24193.62240269  .00007635  00000-0  52349-3 0  9995
2 43770  97.5442 250.9516 0011804 278.6554  81.3336 15.06253249306249
RANGE-B
1 43772U 18099Q   24193.57384886  .00012764  00000-0  77548-3 0  9992
2 43772  97.5226 254.4660 0005879 171.6995 188.4333 15.10599817306409
RANGE-A
1 43773U 18099R   24193.54592772  .00004893  00000-0  37071-3 0  9996
2 43773  97.5016 246.0021 0011534 243.4149 116.5895 15.02666787306091
